Chicago Lansing, IL

2:18 PM CST on November 22, 2019 (GMT -0600)
Lansing Municipal

Weather History for KIGQ - October, 2019

Change the Weather History Date:

Monday, October 21, 2019

  Actual Average (KGYY) Record (KGYY)
Temperature  
Mean Temperature 58 °F -  
Max Temperature 67 °F 64 °F 85 °F (1953)
Min Temperature 50 °F 40 °F 26 °F (1976)
Degree Days  
Heating Degree Days 6    
Growing Degree Days 8 (Base 50)    
Moisture  
Dew Point 51 °F    
Average Humidity 79    
Maximum Humidity 100    
Minimum Humidity 51    
Precipitation  
Precipitation 0.02 in - - ()
Sea Level Pressure  
Sea Level Pressure 29.61 in    
Wind  
Wind Speed 10 mph ()    
Max Wind Speed 30 mph    
Max Gust Speed 46 mph    
Visibility 9.4 miles    
Events Rain    
Averages and records for this station are not official NWS values.
T = Trace of Precipitation, MM = Missing Value Source: Averaged Metar Reports

Daily Weather History Graph

Daily Weather History Graph

Search for Another Location

Airport or City:

Astronomy

Oct. 21, 2019 Rise Set
Actual Time 7:08 AM CDT 6:00 PM CDT
Civil Twilight 6:40 AM CDT 6:28 PM CDT
Nautical Twilight 6:08 AM CDT 7:00 PM CDT
Astronomical Twilight 5:36 AM CDT 7:32 PM CDT
Moon No Moon Rise 2:29 PM CDT (10/21)
Length of Visible Light 11h 47m
Length of Day
10h 51m
Waning Gibbous, 48% of the Moon is Illuminated
Oct 21
Waning Gibbous
Oct 27
New
Nov 4
First Quarter
Nov 12
Full
Nov 19
Last Quarter

Hourly Weather History & Observations

Time (CDT) Temp. Dew Point Humidity Pressure Visibility Wind Dir Wind Speed Gust Speed Precip Events Conditions
12:15 AM 51.4 °F 51.4 °F 100% 29.88 in 2.5 mi Calm Calm - N/A   Overcast
12:35 AM 51.8 °F 51.8 °F 100% 29.87 in 4.0 mi Calm Calm - N/A   Overcast
12:55 AM 52.0 °F 52.0 °F 100% 29.85 in 5.0 mi Calm Calm - N/A   Overcast
1:15 AM 52.2 °F 52.2 °F 100% 29.83 in 7.0 mi Calm Calm - N/A   Overcast
1:35 AM 52.7 °F 52.0 °F 97% 29.84 in 7.0 mi Calm Calm - N/A   Overcast
1:55 AM 52.3 °F 51.8 °F 98% 29.83 in 7.0 mi East 4.6 mph - N/A   Overcast
2:15 AM 52.7 °F 51.8 °F 97% 29.83 in 7.0 mi Calm Calm - N/A   Overcast
2:35 AM 52.9 °F 51.8 °F 96% 29.83 in 10.0 mi Calm Calm - N/A   Overcast
2:55 AM 53.6 °F 51.8 °F 94% 29.81 in 10.0 mi Calm Calm - N/A   Overcast
3:15 AM 55.2 °F 51.4 °F 87% 29.80 in 10.0 mi Calm Calm - N/A   Overcast
3:35 AM 57.2 °F 50.9 °F 79% 29.80 in 10.0 mi SE 5.8 mph - N/A   Overcast
3:55 AM 57.4 °F 50.5 °F 78% 29.78 in 10.0 mi SE 10.4 mph - N/A   Overcast
4:15 AM 57.7 °F 50.4 °F 76% 29.76 in 10.0 mi SE 10.4 mph - N/A   Overcast
4:35 AM 57.9 °F 50.2 °F 75% 29.74 in 10.0 mi ESE 8.1 mph - N/A   Overcast
4:55 AM 58.1 °F 50.0 °F 74% 29.74 in 10.0 mi SE 10.4 mph 16.1 mph N/A   Overcast
5:15 AM 57.6 °F 50.2 °F 76% 29.73 in 10.0 mi ESE 10.4 mph - N/A   Overcast
5:35 AM 57.2 °F 50.2 °F 77% 29.71 in 10.0 mi ESE 10.4 mph - N/A   Mostly Cloudy
5:55 AM 57.4 °F 50.5 °F 78% 29.72 in 10.0 mi SE 8.1 mph - N/A   Mostly Cloudy
6:15 AM 57.2 °F 50.9 °F 79% 29.69 in 10.0 mi ESE 9.2 mph - N/A   Mostly Cloudy
6:35 AM 56.8 °F 51.1 °F 81% 29.66 in 10.0 mi ESE 11.5 mph 16.1 mph N/A   Scattered Clouds
6:55 AM 57.4 °F 51.4 °F 81% 29.67 in 10.0 mi ESE 11.5 mph - N/A   Scattered Clouds
7:15 AM 57.6 °F 51.8 °F 81% 29.67 in 10.0 mi SE 9.2 mph - N/A   Scattered Clouds
7:35 AM 58.1 °F 52.3 °F 81% 29.63 in 10.0 mi SE 10.4 mph 17.3 mph N/A   Scattered Clouds
7:55 AM 59.4 °F 53.1 °F 80% 29.62 in 10.0 mi SE 15.0 mph 21.9 mph N/A   Scattered Clouds
8:15 AM 60.1 °F 53.6 °F 79% 29.61 in 10.0 mi SE 18.4 mph 23.0 mph N/A   Mostly Cloudy
8:35 AM 59.7 °F 54.3 °F 82% 29.60 in 10.0 mi SE 24.2 mph 29.9 mph N/A Rain Light Rain
8:55 AM 58.5 °F 55.6 °F 90% 29.56 in 7.0 mi SE 23.0 mph 33.4 mph 0.01 in Rain Light Rain
9:15 AM 58.1 °F 55.8 °F 92% 29.51 in 10.0 mi SE 26.5 mph 38.0 mph 0.01 in Rain Light Rain
9:35 AM 58.1 °F 56.5 °F 94% 29.46 in 10.0 mi SE 29.9 mph 46.0 mph 0.01 in Rain Rain
9:55 AM 59.4 °F 57.4 °F 93% 29.45 in 7.0 mi SE 27.6 mph 42.6 mph N/A Rain Rain
10:15 AM 59.5 °F 57.6 °F 93% 29.49 in 10.0 mi SSE 23.0 mph 36.8 mph N/A   Mostly Cloudy
10:35 AM 59.5 °F 57.6 °F 93% 29.49 in 10.0 mi SSE 18.4 mph 33.4 mph N/A   Overcast
10:55 AM 59.5 °F 57.4 °F 93% 29.50 in 10.0 mi SSE 20.7 mph 34.5 mph N/A   Overcast
11:15 AM 59.9 °F 57.4 °F 91% 29.51 in 10.0 mi SSE 19.6 mph 29.9 mph N/A   Overcast
11:35 AM 60.1 °F 57.6 °F 91% 29.50 in 10.0 mi SE 17.3 mph 28.8 mph N/A   Overcast
11:55 AM 60.3 °F 57.9 °F 92% 29.52 in 10.0 mi SSE 20.7 mph 34.5 mph N/A   Overcast
12:15 PM 60.3 °F 58.1 °F 93% 29.50 in 10.0 mi SSE 20.7 mph 27.6 mph N/A   Overcast
12:35 PM 60.8 °F 58.3 °F 91% 29.50 in 10.0 mi South 20.7 mph 26.5 mph N/A   Overcast
12:55 PM 60.4 °F 59.2 °F 96% 29.49 in 10.0 mi South 18.4 mph 28.8 mph N/A   Light Drizzle
1:15 PM 60.4 °F 59.9 °F 98% 29.49 in 7.0 mi SSE 18.4 mph 27.6 mph N/A   Drizzle
1:35 PM 61.2 °F 60.1 °F 96% 29.48 in 7.0 mi South 21.9 mph 27.6 mph N/A Rain Light Rain
1:55 PM 62.4 °F 60.8 °F 94% 29.47 in 10.0 mi South 20.7 mph 28.8 mph N/A   Overcast
2:15 PM 62.6 °F 60.4 °F 93% 29.47 in 10.0 mi South 20.7 mph 29.9 mph N/A   Overcast
2:35 PM 64.8 °F 61.3 °F 89% 29.47 in 10.0 mi South 16.1 mph 21.9 mph N/A   Overcast
2:55 PM 65.7 °F 60.3 °F 83% 29.47 in 10.0 mi SSW 25.3 mph 35.7 mph N/A   Mostly Cloudy
3:15 PM 66.4 °F 59.9 °F 80% 29.46 in 10.0 mi SSW 24.2 mph 32.2 mph N/A   Scattered Clouds
3:35 PM 66.4 °F 59.9 °F 80% 29.46 in 10.0 mi SSW 15.0 mph 25.3 mph N/A   Mostly Cloudy
3:55 PM 67.1 °F 58.8 °F 75% 29.46 in 10.0 mi SSW 16.1 mph 27.6 mph N/A   Mostly Cloudy
4:15 PM 65.3 °F 56.7 °F 74% 29.46 in 10.0 mi SSW 17.3 mph 28.8 mph N/A   Mostly Cloudy
4:35 PM 65.7 °F 56.8 °F 73% 29.46 in 10.0 mi SSW 17.3 mph 24.2 mph N/A   Overcast
4:55 PM 65.3 °F 56.7 °F 74% 29.47 in 10.0 mi SSW 16.1 mph - N/A   Overcast
5:15 PM 65.5 °F 55.4 °F 70% 29.48 in 10.0 mi SW 15.0 mph 26.5 mph N/A   Mostly Cloudy
5:35 PM 64.2 °F 47.8 °F 55% 29.50 in 10.0 mi SW 21.9 mph 26.5 mph N/A   Mostly Cloudy
5:55 PM 61.9 °F 43.3 °F 51% 29.51 in 10.0 mi SW 24.2 mph 31.1 mph N/A   Scattered Clouds
6:15 PM 61.2 °F 42.6 °F 51% 29.52 in 10.0 mi SW 18.4 mph 29.9 mph N/A   Mostly Cloudy
6:35 PM 59.2 °F 43.2 °F 55% 29.54 in 10.0 mi WSW 12.7 mph 17.3 mph N/A   Scattered Clouds
6:55 PM 59.2 °F 42.4 °F 54% 29.55 in 10.0 mi SW 15.0 mph 21.9 mph N/A   Mostly Cloudy
7:15 PM 58.3 °F 42.3 °F 55% 29.56 in 10.0 mi WSW 15.0 mph 21.9 mph N/A   Scattered Clouds
7:35 PM 57.0 °F 42.3 °F 58% 29.57 in 10.0 mi WSW 15.0 mph 21.9 mph N/A   Clear
7:55 PM 56.3 °F 41.9 °F 59% 29.58 in 10.0 mi SW 19.6 mph 27.6 mph N/A   Clear
8:15 PM 55.6 °F 42.3 °F 61% 29.58 in 10.0 mi WSW 17.3 mph 24.2 mph N/A   Clear
8:35 PM 54.1 °F 43.0 °F 66% 29.60 in 10.0 mi WSW 12.7 mph 19.6 mph N/A   Clear
8:55 PM 53.6 °F 42.8 °F 67% 29.60 in 10.0 mi SW 12.7 mph 18.4 mph N/A   Clear
9:15 PM 53.6 °F 41.7 °F 64% 29.61 in 10.0 mi SW 15.0 mph 20.7 mph N/A   Scattered Clouds
9:35 PM 53.1 °F 40.8 °F 63% 29.61 in 10.0 mi SW 18.4 mph 24.2 mph N/A   Mostly Cloudy
9:55 PM 52.7 °F 39.6 °F 61% 29.61 in 10.0 mi SW 13.8 mph 19.6 mph N/A   Scattered Clouds
10:15 PM 52.3 °F 39.6 °F 62% 29.61 in 10.0 mi SW 13.8 mph 19.6 mph N/A   Clear
10:35 PM 51.1 °F 39.9 °F 66% 29.61 in 10.0 mi SSW 12.7 mph 17.3 mph N/A   Clear
10:55 PM 51.3 °F 39.7 °F 65% 29.60 in 10.0 mi SSW 11.5 mph 21.9 mph N/A   Clear
11:15 PM 50.5 °F 40.1 °F 67% 29.60 in 10.0 mi SSW 11.5 mph 20.7 mph N/A   Clear
11:35 PM 50.5 °F 40.1 °F 67% 29.59 in 10.0 mi SSW 13.8 mph 18.4 mph N/A   Clear
11:55 PM 50.2 °F 40.1 °F 68% 29.59 in 10.0 mi SSW 12.7 mph 18.4 mph N/A   Clear